Year,Month,Day,Hour,Minute,Value (Times are PST for temperature in C)
2017,06,25,00,00,17.40
2017,06,25,00,01,17.50
2017,06,25,00,02,17.50
2017,06,25,00,03,17.50
2017,06,25,00,04,17.50
2017,06,25,00,05,17.50
2017,06,25,00,06,17.50
2017,06,25,00,07,17.50
2017,06,25,00,08,17.60
2017,06,25,00,09,17.60
2017,06,25,00,10,17.70
2017,06,25,00,11,17.80
2017,06,25,00,12,17.80
2017,06,25,00,13,17.80
2017,06,25,00,14,17.90
2017,06,25,00,15,17.90
2017,06,25,00,16,17.90
2017,06,25,00,17,17.90
2017,06,25,00,18,17.90
2017,06,25,00,19,17.90
2017,06,25,00,20,17.90
2017,06,25,00,21,17.80
2017,06,25,00,22,17.80
2017,06,25,00,23,17.80
2017,06,25,00,24,17.70
2017,06,25,00,25,17.70
2017,06,25,00,26,17.70
2017,06,25,00,27,17.60
2017,06,25,00,28,17.60
2017,06,25,00,29,17.50
2017,06,25,00,30,17.50
2017,06,25,00,31,17.40
2017,06,25,00,32,17.40
2017,06,25,00,33,17.40
2017,06,25,00,34,17.30
2017,06,25,00,35,17.30
2017,06,25,00,36,17.30
2017,06,25,00,37,17.20
2017,06,25,00,38,17.20
2017,06,25,00,39,17.20
2017,06,25,00,40,17.20
2017,06,25,00,41,17.20
2017,06,25,00,42,17.20
2017,06,25,00,43,17.20
2017,06,25,00,44,17.20
2017,06,25,00,45,17.20
2017,06,25,00,46,17.20
2017,06,25,00,47,17.20
2017,06,25,00,48,17.20
2017,06,25,00,49,17.20
2017,06,25,00,50,17.20
2017,06,25,00,51,17.20
2017,06,25,00,52,17.10
2017,06,25,00,53,17.10
2017,06,25,00,54,17.10
2017,06,25,00,55,17.10
2017,06,25,00,56,17.00
2017,06,25,00,57,17.00
2017,06,25,00,58,17.00
2017,06,25,00,59,17.00
2017,06,25,01,00,16.90
2017,06,25,01,01,16.90
2017,06,25,01,02,16.80
2017,06,25,01,03,16.80
2017,06,25,01,04,16.80
2017,06,25,01,05,16.70
2017,06,25,01,06,16.70
2017,06,25,01,07,16.80
2017,06,25,01,08,16.80
2017,06,25,01,09,16.90
2017,06,25,01,10,17.00
2017,06,25,01,11,17.00
2017,06,25,01,12,17.00
2017,06,25,01,13,17.00
2017,06,25,01,14,16.90
2017,06,25,01,15,16.90
2017,06,25,01,16,16.90
2017,06,25,01,17,16.80
2017,06,25,01,18,16.80
2017,06,25,01,19,16.80
2017,06,25,01,20,16.80
2017,06,25,01,21,16.80
2017,06,25,01,22,16.80
2017,06,25,01,23,16.80
2017,06,25,01,24,16.80
2017,06,25,01,25,16.90
2017,06,25,01,26,17.00
2017,06,25,01,27,17.00
2017,06,25,01,28,17.00
2017,06,25,01,29,17.10
2017,06,25,01,30,17.00
2017,06,25,01,31,17.00
2017,06,25,01,32,16.90
2017,06,25,01,33,16.90
2017,06,25,01,34,16.80
2017,06,25,01,35,16.80
2017,06,25,01,36,16.80
2017,06,25,01,37,16.80
2017,06,25,01,38,16.70
2017,06,25,01,39,16.60
2017,06,25,01,40,16.60
2017,06,25,01,41,16.60
2017,06,25,01,42,16.60
2017,06,25,01,43,16.60
2017,06,25,01,44,16.60
2017,06,25,01,45,16.60
2017,06,25,01,46,16.50
2017,06,25,01,47,16.40
2017,06,25,01,48,16.40
2017,06,25,01,49,16.40
2017,06,25,01,50,16.40
2017,06,25,01,51,16.40
2017,06,25,01,52,16.40
2017,06,25,01,53,16.40
2017,06,25,01,54,16.30
2017,06,25,01,55,16.30
2017,06,25,01,56,16.30
2017,06,25,01,57,16.40
2017,06,25,01,58,16.50
2017,06,25,01,59,16.60
2017,06,25,02,00,16.60
2017,06,25,02,01,16.70
2017,06,25,02,02,16.80
2017,06,25,02,03,16.80
2017,06,25,02,04,16.70
2017,06,25,02,05,16.70
2017,06,25,02,06,16.70
2017,06,25,02,07,16.70
2017,06,25,02,08,16.80
2017,06,25,02,09,16.80
2017,06,25,02,10,16.80
2017,06,25,02,11,16.70
2017,06,25,02,12,16.70
2017,06,25,02,13,16.70
2017,06,25,02,14,16.70
2017,06,25,02,15,16.60
2017,06,25,02,16,16.60
2017,06,25,02,17,16.60
2017,06,25,02,18,16.50
2017,06,25,02,19,16.50
2017,06,25,02,20,16.40
2017,06,25,02,21,16.50
2017,06,25,02,22,16.50
2017,06,25,02,23,16.40
2017,06,25,02,24,16.40
2017,06,25,02,25,16.40
2017,06,25,02,26,16.40
2017,06,25,02,27,16.40
2017,06,25,02,28,16.40
2017,06,25,02,29,16.40
2017,06,25,02,30,16.50
2017,06,25,02,31,16.50
2017,06,25,02,32,16.50
2017,06,25,02,33,16.60
2017,06,25,02,34,16.60
2017,06,25,02,35,16.60
2017,06,25,02,36,16.50
2017,06,25,02,37,16.50
2017,06,25,02,38,16.50
2017,06,25,02,39,16.50
2017,06,25,02,40,16.60
2017,06,25,02,41,16.60
2017,06,25,02,42,16.60
2017,06,25,02,43,16.60
2017,06,25,02,44,16.60
2017,06,25,02,45,16.70
2017,06,25,02,46,16.70
2017,06,25,02,47,16.70
2017,06,25,02,48,16.80
2017,06,25,02,49,16.80
2017,06,25,02,50,16.80
2017,06,25,02,51,16.80
2017,06,25,02,52,16.70
2017,06,25,02,53,16.70
2017,06,25,02,54,16.70
2017,06,25,02,55,16.60
2017,06,25,02,56,16.60
2017,06,25,02,57,16.70
2017,06,25,02,58,16.70
2017,06,25,02,59,16.70
2017,06,25,03,00,16.70
2017,06,25,03,01,16.70
2017,06,25,03,02,16.70
2017,06,25,03,03,16.60
2017,06,25,03,04,16.60
2017,06,25,03,05,16.60
2017,06,25,03,06,16.60
2017,06,25,03,07,16.60
2017,06,25,03,08,16.60
2017,06,25,03,09,16.60
2017,06,25,03,10,16.60
2017,06,25,03,11,16.60
2017,06,25,03,12,16.50
2017,06,25,03,13,16.40
2017,06,25,03,14,16.30
2017,06,25,03,15,16.30
2017,06,25,03,16,16.30
2017,06,25,03,17,16.20
2017,06,25,03,18,16.20
2017,06,25,03,19,16.10
2017,06,25,03,20,16.10
2017,06,25,03,21,16.00
2017,06,25,03,22,16.00
2017,06,25,03,23,15.90
2017,06,25,03,24,15.90
2017,06,25,03,25,15.90
2017,06,25,03,26,15.90
2017,06,25,03,27,15.90
2017,06,25,03,28,15.90
2017,06,25,03,29,16.00
2017,06,25,03,30,16.00
2017,06,25,03,31,16.10
2017,06,25,03,32,16.10
2017,06,25,03,33,16.00
2017,06,25,03,34,16.00
2017,06,25,03,35,15.90
2017,06,25,03,36,16.00
2017,06,25,03,37,16.00
2017,06,25,03,38,16.10
2017,06,25,03,39,16.10
2017,06,25,03,40,16.00
2017,06,25,03,41,16.00
2017,06,25,03,42,15.90
2017,06,25,03,43,15.80
2017,06,25,03,44,15.70
2017,06,25,03,45,15.70
2017,06,25,03,46,15.60
2017,06,25,03,47,15.60
2017,06,25,03,48,15.50
2017,06,25,03,49,15.50
2017,06,25,03,50,15.50
2017,06,25,03,51,15.40
2017,06,25,03,52,15.40
2017,06,25,03,53,15.40
2017,06,25,03,54,15.40
2017,06,25,03,55,15.40
2017,06,25,03,56,15.50
2017,06,25,03,57,15.50
2017,06,25,03,58,15.60
2017,06,25,03,59,15.60
2017,06,25,04,00,15.60
2017,06,25,04,01,15.60
2017,06,25,04,02,15.70
2017,06,25,04,03,15.70
2017,06,25,04,04,15.70
2017,06,25,04,05,15.80
2017,06,25,04,06,15.80
2017,06,25,04,07,15.90
2017,06,25,04,08,15.90
2017,06,25,04,09,16.00
2017,06,25,04,10,16.00
2017,06,25,04,11,16.00
2017,06,25,04,12,16.00
2017,06,25,04,13,16.00
2017,06,25,04,14,16.00
2017,06,25,04,15,16.00
2017,06,25,04,16,16.00
2017,06,25,04,17,16.00
2017,06,25,04,18,16.00
2017,06,25,04,19,15.90
2017,06,25,04,20,15.90
2017,06,25,04,21,15.90
2017,06,25,04,22,15.90
2017,06,25,04,23,15.90
2017,06,25,04,24,15.80
2017,06,25,04,25,15.80
2017,06,25,04,26,15.70
2017,06,25,04,27,15.70
2017,06,25,04,28,15.60
2017,06,25,04,29,15.60
2017,06,25,04,30,15.50
2017,06,25,04,31,15.50
2017,06,25,04,32,15.50
2017,06,25,04,33,15.40
2017,06,25,04,34,15.40
2017,06,25,04,35,15.40
2017,06,25,04,36,15.40
2017,06,25,04,37,15.40
2017,06,25,04,38,15.50
2017,06,25,04,39,15.50
2017,06,25,04,40,15.50
2017,06,25,04,41,15.50
2017,06,25,04,42,15.50
2017,06,25,04,43,15.50
2017,06,25,04,44,15.50
2017,06,25,04,45,15.50
2017,06,25,04,46,15.50
2017,06,25,04,47,15.50
2017,06,25,04,48,15.50
2017,06,25,04,49,15.50
2017,06,25,04,50,15.40
2017,06,25,04,51,15.40
2017,06,25,04,52,15.40
2017,06,25,04,53,15.40
2017,06,25,04,54,15.50
2017,06,25,04,55,15.50
2017,06,25,04,56,15.60
2017,06,25,04,57,15.70
2017,06,25,04,58,15.70
2017,06,25,04,59,15.70
2017,06,25,05,00,15.70
2017,06,25,05,01,15.70
2017,06,25,05,02,15.70
2017,06,25,05,03,15.70
2017,06,25,05,04,15.70
2017,06,25,05,05,15.70
2017,06,25,05,06,15.70
2017,06,25,05,07,15.70
2017,06,25,05,08,15.70
2017,06,25,05,09,15.70
2017,06,25,05,10,15.60
2017,06,25,05,11,15.60
2017,06,25,05,12,15.50
2017,06,25,05,13,15.50
2017,06,25,05,14,15.40
2017,06,25,05,15,15.40
2017,06,25,05,16,15.40
2017,06,25,05,17,15.40
2017,06,25,05,18,15.40
2017,06,25,05,19,15.30
2017,06,25,05,20,15.30
2017,06,25,05,21,15.30
2017,06,25,05,22,15.30
2017,06,25,05,23,15.30
2017,06,25,05,24,15.30
2017,06,25,05,25,15.30
2017,06,25,05,26,15.30
2017,06,25,05,27,15.40
2017,06,25,05,28,15.40
2017,06,25,05,29,15.40
2017,06,25,05,30,15.50
2017,06,25,05,31,15.50
2017,06,25,05,32,15.50
2017,06,25,05,33,15.50
2017,06,25,05,34,15.60
2017,06,25,05,35,15.60
2017,06,25,05,36,15.50
2017,06,25,05,37,15.50
2017,06,25,05,38,15.50
2017,06,25,05,39,15.50
2017,06,25,05,40,15.50
2017,06,25,05,41,15.40
2017,06,25,05,42,15.40
2017,06,25,05,43,15.40
2017,06,25,05,44,15.40
2017,06,25,05,45,15.40
2017,06,25,05,46,15.40
2017,06,25,05,47,15.50
2017,06,25,05,48,15.50
2017,06,25,05,49,15.60
2017,06,25,05,50,15.70
2017,06,25,05,51,15.70
2017,06,25,05,52,15.80
2017,06,25,05,53,15.90
2017,06,25,05,54,15.90
2017,06,25,05,55,15.90
2017,06,25,05,56,15.90
2017,06,25,05,57,16.00
2017,06,25,05,58,16.00
2017,06,25,05,59,16.00
2017,06,25,06,00,16.10
2017,06,25,06,01,16.10
2017,06,25,06,02,16.10
2017,06,25,06,03,16.10
2017,06,25,06,04,16.10
2017,06,25,06,05,16.20
2017,06,25,06,06,16.10
2017,06,25,06,07,16.20
2017,06,25,06,08,16.10
2017,06,25,06,09,16.10
2017,06,25,06,10,16.10
2017,06,25,06,11,16.10
2017,06,25,06,12,16.00
2017,06,25,06,13,16.00
2017,06,25,06,14,16.00
2017,06,25,06,15,16.00
2017,06,25,06,16,16.00
2017,06,25,06,17,16.00
2017,06,25,06,18,16.10
2017,06,25,06,19,16.10
2017,06,25,06,20,16.00
2017,06,25,06,21,16.00
2017,06,25,06,22,15.90
2017,06,25,06,23,15.90
2017,06,25,06,24,15.90
2017,06,25,06,25,15.90
2017,06,25,06,26,15.90
2017,06,25,06,27,15.90
2017,06,25,06,28,15.90
2017,06,25,06,29,15.90
2017,06,25,06,30,15.90
2017,06,25,06,31,16.00
2017,06,25,06,32,16.00
2017,06,25,06,33,16.10
2017,06,25,06,34,16.10
2017,06,25,06,35,16.10
2017,06,25,06,36,16.10
2017,06,25,06,37,16.20
2017,06,25,06,38,16.20
2017,06,25,06,39,16.20
2017,06,25,06,40,16.20
2017,06,25,06,41,16.30
2017,06,25,06,42,16.30
2017,06,25,06,43,16.30
2017,06,25,06,44,16.40
2017,06,25,06,45,16.40
2017,06,25,06,46,16.40
2017,06,25,06,47,16.50
2017,06,25,06,48,16.50
2017,06,25,06,49,16.60
2017,06,25,06,50,16.70
2017,06,25,06,51,16.80
2017,06,25,06,52,16.80
2017,06,25,06,53,16.90
2017,06,25,06,54,17.00
2017,06,25,06,55,17.00
2017,06,25,06,56,17.10
2017,06,25,06,57,17.10
2017,06,25,06,58,17.10
2017,06,25,06,59,17.20
2017,06,25,07,00,17.20
2017,06,25,07,01,17.20
2017,06,25,07,02,17.30
2017,06,25,07,03,17.30
2017,06,25,07,04,17.40
2017,06,25,07,05,17.40
2017,06,25,07,06,17.40
2017,06,25,07,07,17.50
2017,06,25,07,08,17.50
2017,06,25,07,09,17.40
2017,06,25,07,10,17.40
2017,06,25,07,11,17.40
2017,06,25,07,12,17.30
2017,06,25,07,13,17.30
2017,06,25,07,14,17.30
2017,06,25,07,15,17.20
2017,06,25,07,16,17.20
2017,06,25,07,17,17.20
2017,06,25,07,18,17.10
2017,06,25,07,19,17.10
2017,06,25,07,20,17.10
2017,06,25,07,21,17.10
2017,06,25,07,22,17.20
2017,06,25,07,23,17.20
2017,06,25,07,24,17.20
2017,06,25,07,25,17.30
2017,06,25,07,26,17.30
2017,06,25,07,27,17.30
2017,06,25,07,28,17.40
2017,06,25,07,29,17.50
2017,06,25,07,30,17.50
2017,06,25,07,31,17.60
2017,06,25,07,32,17.60
2017,06,25,07,33,17.60
2017,06,25,07,34,17.70
2017,06,25,07,35,17.80
2017,06,25,07,36,17.80
2017,06,25,07,37,17.90
2017,06,25,07,38,18.00
2017,06,25,07,39,18.00
2017,06,25,07,40,18.10
2017,06,25,07,41,18.10
2017,06,25,07,42,18.20
2017,06,25,07,43,18.20
2017,06,25,07,44,18.30
2017,06,25,07,45,18.30
2017,06,25,07,46,18.40
2017,06,25,07,47,18.40
2017,06,25,07,48,18.50
2017,06,25,07,49,18.60
2017,06,25,07,50,18.60
2017,06,25,07,51,18.60
2017,06,25,07,52,18.60
2017,06,25,07,53,18.70
2017,06,25,07,54,18.70
2017,06,25,07,55,18.70
2017,06,25,07,56,18.70
2017,06,25,07,57,18.70
2017,06,25,07,58,18.80
2017,06,25,07,59,18.80
2017,06,25,08,00,18.90
2017,06,25,08,01,18.90
2017,06,25,08,02,19.00
2017,06,25,08,03,19.00
2017,06,25,08,04,19.10
2017,06,25,08,05,19.10
2017,06,25,08,06,19.20
2017,06,25,08,07,19.20
2017,06,25,08,08,19.20
2017,06,25,08,09,19.20
2017,06,25,08,10,19.30
2017,06,25,08,11,19.30
2017,06,25,08,12,19.30
2017,06,25,08,13,19.30
2017,06,25,08,14,19.30
2017,06,25,08,15,19.40
2017,06,25,08,16,19.40
2017,06,25,08,17,19.40
2017,06,25,08,18,19.40
2017,06,25,08,19,19.40
2017,06,25,08,20,19.40
2017,06,25,08,21,19.40
2017,06,25,08,22,19.50
2017,06,25,08,23,19.50
2017,06,25,08,24,19.50
2017,06,25,08,25,19.60
2017,06,25,08,26,19.60
2017,06,25,08,27,19.70
2017,06,25,08,28,19.70
2017,06,25,08,29,19.80
2017,06,25,08,30,19.80
2017,06,25,08,31,19.90
2017,06,25,08,32,19.90
2017,06,25,08,33,20.00
2017,06,25,08,34,20.10
2017,06,25,08,35,20.10
2017,06,25,08,36,20.20
2017,06,25,08,37,20.20
2017,06,25,08,38,20.30
2017,06,25,08,39,20.40
2017,06,25,08,40,20.40
2017,06,25,08,41,20.50
2017,06,25,08,42,20.50
2017,06,25,08,43,20.60
2017,06,25,08,44,20.60
2017,06,25,08,45,20.70
2017,06,25,08,46,20.80
2017,06,25,08,47,20.80
2017,06,25,08,48,20.90
2017,06,25,08,49,21.00
2017,06,25,08,50,21.00
2017,06,25,08,51,21.10
2017,06,25,08,52,21.10
2017,06,25,08,53,21.20
2017,06,25,08,54,21.20
2017,06,25,08,55,21.20
2017,06,25,08,56,21.30
2017,06,25,08,57,21.30
2017,06,25,08,58,21.40
2017,06,25,08,59,21.40
2017,06,25,09,00,21.50
2017,06,25,09,01,21.50
2017,06,25,09,02,21.60
2017,06,25,09,03,21.60
2017,06,25,09,04,21.70
2017,06,25,09,05,21.70
2017,06,25,09,06,21.70
2017,06,25,09,07,21.70
2017,06,25,09,08,21.70
2017,06,25,09,09,21.70
2017,06,25,09,10,21.80
2017,06,25,09,11,21.80
2017,06,25,09,12,21.80
2017,06,25,09,13,21.90
2017,06,25,09,14,22.00
2017,06,25,09,15,22.00
2017,06,25,09,16,22.10
2017,06,25,09,17,22.20
2017,06,25,09,18,22.20
2017,06,25,09,19,22.20
2017,06,25,09,20,22.30
2017,06,25,09,21,22.30
2017,06,25,09,22,22.30
2017,06,25,09,23,22.40
2017,06,25,09,24,22.40
2017,06,25,09,25,22.40
2017,06,25,09,26,22.40
2017,06,25,09,27,22.50
2017,06,25,09,28,22.50
2017,06,25,09,29,22.50
2017,06,25,09,30,22.50
2017,06,25,09,31,22.40
2017,06,25,09,32,22.40
2017,06,25,09,33,22.40
2017,06,25,09,34,22.40
2017,06,25,09,35,22.40
2017,06,25,09,36,22.40
2017,06,25,09,37,22.50
2017,06,25,09,38,22.50
2017,06,25,09,39,22.60
2017,06,25,09,40,22.70
2017,06,25,09,41,22.70
2017,06,25,09,42,22.80
2017,06,25,09,43,22.80
2017,06,25,09,44,22.90
2017,06,25,09,45,22.90
2017,06,25,09,46,23.00
2017,06,25,09,47,23.00
2017,06,25,09,48,23.10
2017,06,25,09,49,23.10
2017,06,25,09,50,23.10
2017,06,25,09,51,23.10
2017,06,25,09,52,23.10
2017,06,25,09,53,23.00
2017,06,25,09,54,23.00
2017,06,25,09,55,22.90
2017,06,25,09,56,22.90
2017,06,25,09,57,22.90
2017,06,25,09,58,22.90
2017,06,25,09,59,22.80
2017,06,25,10,00,22.80
2017,06,25,10,01,22.80
2017,06,25,10,02,22.80
2017,06,25,10,03,22.70
2017,06,25,10,04,22.70
2017,06,25,10,05,22.70
2017,06,25,10,06,22.70
2017,06,25,10,07,22.70
2017,06,25,10,08,22.70
2017,06,25,10,09,22.70
2017,06,25,10,10,22.70
2017,06,25,10,11,22.80
2017,06,25,10,12,22.80
2017,06,25,10,13,22.90
2017,06,25,10,14,22.90
2017,06,25,10,15,22.90
2017,06,25,10,16,23.00
2017,06,25,10,17,23.00
2017,06,25,10,18,22.90
2017,06,25,10,19,22.90
2017,06,25,10,20,22.90
2017,06,25,10,21,22.80
2017,06,25,10,22,22.80
2017,06,25,10,23,22.90
2017,06,25,10,24,23.00
2017,06,25,10,25,23.00
2017,06,25,10,26,23.10
2017,06,25,10,27,23.10
2017,06,25,10,28,23.10
2017,06,25,10,29,23.10
2017,06,25,10,30,23.10
2017,06,25,10,31,23.20
2017,06,25,10,32,23.20
2017,06,25,10,33,23.20
2017,06,25,10,34,23.30
2017,06,25,10,35,23.30
2017,06,25,10,36,23.40
2017,06,25,10,37,23.40
2017,06,25,10,38,23.50
2017,06,25,10,39,23.60
2017,06,25,10,40,23.60
2017,06,25,10,41,23.70
2017,06,25,10,42,23.70
2017,06,25,10,43,23.70
2017,06,25,10,44,23.70
2017,06,25,10,45,23.70
2017,06,25,10,46,23.70
2017,06,25,10,47,23.70
2017,06,25,10,48,23.70
2017,06,25,10,49,23.70
2017,06,25,10,50,23.70
2017,06,25,10,51,23.70
2017,06,25,10,52,23.80
2017,06,25,10,53,23.80
2017,06,25,10,54,23.80
2017,06,25,10,55,23.90
2017,06,25,10,56,23.90
2017,06,25,10,57,24.00
2017,06,25,10,58,24.10
2017,06,25,10,59,24.10
2017,06,25,11,00,24.20
2017,06,25,11,01,24.20
2017,06,25,11,02,24.20
2017,06,25,11,03,24.20
2017,06,25,11,04,24.20
2017,06,25,11,05,24.20
2017,06,25,11,06,24.20
2017,06,25,11,07,24.20
2017,06,25,11,08,24.20
2017,06,25,11,09,24.20
2017,06,25,11,10,24.20
2017,06,25,11,11,24.20
2017,06,25,11,12,24.20
2017,06,25,11,13,24.30
2017,06,25,11,14,24.40
2017,06,25,11,15,24.50
2017,06,25,11,16,24.60
2017,06,25,11,17,24.70
2017,06,25,11,18,24.80
2017,06,25,11,19,24.90
2017,06,25,11,20,24.90
2017,06,25,11,21,25.00
2017,06,25,11,22,25.10
2017,06,25,11,23,25.10
2017,06,25,11,24,25.10
2017,06,25,11,25,25.10
2017,06,25,11,26,25.10
2017,06,25,11,27,25.00
2017,06,25,11,28,25.00
2017,06,25,11,29,25.00
2017,06,25,11,30,25.10
2017,06,25,11,31,25.10
2017,06,25,11,32,25.20
2017,06,25,11,33,25.20
2017,06,25,11,34,25.20
2017,06,25,11,35,25.20
2017,06,25,11,36,25.30
2017,06,25,11,37,25.30
2017,06,25,11,38,25.20
2017,06,25,11,39,25.20
2017,06,25,11,40,25.30
2017,06,25,11,41,25.30
2017,06,25,11,42,25.30
2017,06,25,11,43,25.30
2017,06,25,11,44,25.30
2017,06,25,11,45,25.20
2017,06,25,11,46,25.20
2017,06,25,11,47,25.20
2017,06,25,11,48,25.30
2017,06,25,11,49,25.40
2017,06,25,11,50,25.40
2017,06,25,11,51,25.50
2017,06,25,11,52,25.60
2017,06,25,11,53,25.80
2017,06,25,11,54,25.80
2017,06,25,11,55,25.90
2017,06,25,11,56,25.90
2017,06,25,11,57,25.90
2017,06,25,11,58,25.90
2017,06,25,11,59,25.90
2017,06,25,12,00,25.90
2017,06,25,12,01,25.90
2017,06,25,12,02,26.00
2017,06,25,12,03,26.10
2017,06,25,12,04,26.20
2017,06,25,12,05,26.30
2017,06,25,12,06,26.40
2017,06,25,12,07,26.50
2017,06,25,12,08,26.60
2017,06,25,12,09,26.70
2017,06,25,12,10,26.80
2017,06,25,12,11,26.90
2017,06,25,12,12,26.90
2017,06,25,12,13,26.90
2017,06,25,12,14,26.90
2017,06,25,12,15,27.00
2017,06,25,12,16,26.90
2017,06,25,12,17,26.90
2017,06,25,12,18,26.90
2017,06,25,12,19,26.90
2017,06,25,12,20,27.00
2017,06,25,12,21,27.10
2017,06,25,12,22,27.20
2017,06,25,12,23,27.20
2017,06,25,12,24,27.30
2017,06,25,12,25,27.30
2017,06,25,12,26,27.40
2017,06,25,12,27,27.40
2017,06,25,12,28,27.50
2017,06,25,12,29,27.60
2017,06,25,12,30,27.60
2017,06,25,12,31,27.60
2017,06,25,12,32,27.60
2017,06,25,12,33,27.70
2017,06,25,12,34,27.70
2017,06,25,12,35,27.70
2017,06,25,12,36,27.70
2017,06,25,12,37,27.70
2017,06,25,12,38,27.70
2017,06,25,12,39,27.70
2017,06,25,12,40,27.70
2017,06,25,12,41,27.70
2017,06,25,12,42,27.70
2017,06,25,12,43,27.70
2017,06,25,12,44,27.70
2017,06,25,12,45,27.70
2017,06,25,12,46,27.70
2017,06,25,12,47,27.60
2017,06,25,12,48,27.60
2017,06,25,12,49,27.70
2017,06,25,12,50,27.70
2017,06,25,12,51,27.80
2017,06,25,12,52,27.90
2017,06,25,12,53,27.90
2017,06,25,12,54,28.00
2017,06,25,12,55,28.10
2017,06,25,12,56,28.10
2017,06,25,12,57,28.20
2017,06,25,12,58,28.30
2017,06,25,12,59,28.30
2017,06,25,13,00,28.30
2017,06,25,13,01,28.30
2017,06,25,13,02,28.30
2017,06,25,13,03,28.30
2017,06,25,13,04,28.20
2017,06,25,13,05,28.20
2017,06,25,13,06,28.20
2017,06,25,13,07,28.20
2017,06,25,13,08,28.20
2017,06,25,13,09,28.10
2017,06,25,13,10,28.00
2017,06,25,13,11,27.90
2017,06,25,13,12,27.80
2017,06,25,13,13,27.80
2017,06,25,13,14,27.80
2017,06,25,13,15,27.80
2017,06,25,13,16,27.90
2017,06,25,13,17,27.90
2017,06,25,13,18,28.00
2017,06,25,13,19,28.00
2017,06,25,13,20,28.10
2017,06,25,13,21,28.10
2017,06,25,13,22,28.10
2017,06,25,13,23,28.10
2017,06,25,13,24,28.00
2017,06,25,13,25,28.00
2017,06,25,13,26,28.00
2017,06,25,13,27,27.90
2017,06,25,13,28,28.00
2017,06,25,13,29,28.00
2017,06,25,13,30,28.00
2017,06,25,13,31,27.90
2017,06,25,13,32,28.00
2017,06,25,13,33,28.00
2017,06,25,13,34,28.00
2017,06,25,13,35,28.00
2017,06,25,13,36,28.00
2017,06,25,13,37,28.00
2017,06,25,13,38,28.00
2017,06,25,13,39,28.00
2017,06,25,13,40,28.00
2017,06,25,13,41,28.10
2017,06,25,13,42,28.10
2017,06,25,13,43,28.00
2017,06,25,13,44,28.10
2017,06,25,13,45,28.10
2017,06,25,13,46,28.10
2017,06,25,13,47,28.10
2017,06,25,13,48,28.20
2017,06,25,13,49,28.20
2017,06,25,13,50,28.20
2017,06,25,13,51,28.20
2017,06,25,13,52,28.20
2017,06,25,13,53,28.20
2017,06,25,13,54,28.20
2017,06,25,13,55,28.20
2017,06,25,13,56,28.20
2017,06,25,13,57,28.10
2017,06,25,13,58,28.10
2017,06,25,13,59,28.20
2017,06,25,14,00,28.20
2017,06,25,14,01,28.30
2017,06,25,14,02,28.30
2017,06,25,14,03,28.40
2017,06,25,14,04,28.40
2017,06,25,14,05,28.40
2017,06,25,14,06,28.30
2017,06,25,14,07,28.30
2017,06,25,14,08,28.30
2017,06,25,14,09,28.40
2017,06,25,14,10,28.40
2017,06,25,14,11,28.40
2017,06,25,14,12,28.40
2017,06,25,14,13,28.40
2017,06,25,14,14,28.40
2017,06,25,14,15,28.40
2017,06,25,14,16,28.40
2017,06,25,14,17,28.40
2017,06,25,14,18,28.40
2017,06,25,14,19,28.50
2017,06,25,14,20,28.60
2017,06,25,14,21,28.60
2017,06,25,14,22,28.70
2017,06,25,14,23,28.70
2017,06,25,14,24,28.70
2017,06,25,14,25,28.70
2017,06,25,14,26,28.70
2017,06,25,14,27,28.70
2017,06,25,14,28,28.70
2017,06,25,14,29,28.70
2017,06,25,14,30,28.70
2017,06,25,14,31,28.70
2017,06,25,14,32,28.80
2017,06,25,14,33,28.80
2017,06,25,14,34,28.70
2017,06,25,14,35,28.70
2017,06,25,14,36,28.60
2017,06,25,14,37,28.60
2017,06,25,14,38,28.60
2017,06,25,14,39,28.60
2017,06,25,14,40,28.70
2017,06,25,14,41,28.70
2017,06,25,14,42,28.70
2017,06,25,14,43,28.80
2017,06,25,14,44,28.80
2017,06,25,14,45,28.80
2017,06,25,14,46,28.80
2017,06,25,14,47,28.80
2017,06,25,14,48,28.90
2017,06,25,14,49,28.90
2017,06,25,14,50,28.90
2017,06,25,14,51,28.80
2017,06,25,14,52,28.80
2017,06,25,14,53,28.90
2017,06,25,14,54,28.90
2017,06,25,14,55,28.90
2017,06,25,14,56,29.00
2017,06,25,14,57,29.00
2017,06,25,14,58,29.10
2017,06,25,14,59,29.00
2017,06,25,15,00,29.00
2017,06,25,15,01,29.00
2017,06,25,15,02,29.00
2017,06,25,15,03,29.00
2017,06,25,15,04,29.10
2017,06,25,15,05,29.10
2017,06,25,15,06,29.10
2017,06,25,15,07,29.10
2017,06,25,15,08,29.10
2017,06,25,15,09,29.10
2017,06,25,15,10,29.10
2017,06,25,15,11,29.10
2017,06,25,15,12,29.20
2017,06,25,15,13,29.30
2017,06,25,15,14,29.30
2017,06,25,15,15,29.40
2017,06,25,15,16,29.40
2017,06,25,15,17,29.40
2017,06,25,15,18,29.40
2017,06,25,15,19,29.40
2017,06,25,15,20,29.40
2017,06,25,15,21,29.40
2017,06,25,15,22,29.40
2017,06,25,15,23,29.50
2017,06,25,15,24,29.60
2017,06,25,15,25,29.70
2017,06,25,15,26,29.80
2017,06,25,15,27,29.90
2017,06,25,15,28,30.00
2017,06,25,15,29,30.10
2017,06,25,15,30,30.10
2017,06,25,15,31,30.10
2017,06,25,15,32,30.10
2017,06,25,15,33,30.10
2017,06,25,15,34,30.10
2017,06,25,15,35,30.00
2017,06,25,15,36,29.90
2017,06,25,15,37,29.90
2017,06,25,15,38,29.80
2017,06,25,15,39,29.70
2017,06,25,15,40,29.70
2017,06,25,15,41,29.70
2017,06,25,15,42,29.70
2017,06,25,15,43,29.70
2017,06,25,15,44,29.70
2017,06,25,15,45,29.60
2017,06,25,15,46,29.50
2017,06,25,15,47,29.40
2017,06,25,15,48,29.30
2017,06,25,15,49,29.20
2017,06,25,15,50,29.20
2017,06,25,15,51,29.20
2017,06,25,15,52,29.20
2017,06,25,15,53,29.20
2017,06,25,15,54,29.20
2017,06,25,15,55,29.20
2017,06,25,15,56,29.20
2017,06,25,15,57,29.20
2017,06,25,15,58,29.10
2017,06,25,15,59,29.10
2017,06,25,16,00,29.10
2017,06,25,16,01,29.10
2017,06,25,16,02,29.10
2017,06,25,16,03,29.10
2017,06,25,16,04,29.10
2017,06,25,16,05,29.10
2017,06,25,16,06,29.20
2017,06,25,16,07,29.30
2017,06,25,16,08,29.30
2017,06,25,16,09,29.30
2017,06,25,16,10,29.30
2017,06,25,16,11,29.30
2017,06,25,16,12,29.30
2017,06,25,16,13,29.20
2017,06,25,16,14,29.20
2017,06,25,16,15,29.20
2017,06,25,16,16,29.20
2017,06,25,16,17,29.20
2017,06,25,16,18,29.20
2017,06,25,16,19,29.20
2017,06,25,16,20,29.20
2017,06,25,16,21,29.20
2017,06,25,16,22,29.20
2017,06,25,16,23,29.20
2017,06,25,16,24,29.20
2017,06,25,16,25,29.20
2017,06,25,16,26,29.30
2017,06,25,16,27,29.30
2017,06,25,16,28,29.30
2017,06,25,16,29,29.20
2017,06,25,16,30,29.20
2017,06,25,16,31,29.20
2017,06,25,16,32,29.20
2017,06,25,16,33,29.20
2017,06,25,16,34,29.20
2017,06,25,16,35,29.20
2017,06,25,16,36,29.20
2017,06,25,16,37,29.20
2017,06,25,16,38,29.20
2017,06,25,16,39,29.20
2017,06,25,16,40,29.20
2017,06,25,16,41,29.20
2017,06,25,16,42,29.20
2017,06,25,16,43,29.20
2017,06,25,16,44,29.20
2017,06,25,16,45,29.20
2017,06,25,16,46,29.20
2017,06,25,16,47,29.20
2017,06,25,16,48,29.20
2017,06,25,16,49,29.10
2017,06,25,16,50,29.10
2017,06,25,16,51,29.10
2017,06,25,16,52,29.10
2017,06,25,16,53,29.00
2017,06,25,16,54,29.00
2017,06,25,16,55,29.00
2017,06,25,16,56,29.00
2017,06,25,16,57,29.00
2017,06,25,16,58,29.00
2017,06,25,16,59,29.00
2017,06,25,17,00,29.00
2017,06,25,17,01,29.00
2017,06,25,17,02,29.00
2017,06,25,17,03,29.00
2017,06,25,17,04,28.90
2017,06,25,17,05,28.90
2017,06,25,17,06,28.90
2017,06,25,17,07,28.90
2017,06,25,17,08,28.90
2017,06,25,17,09,28.90
2017,06,25,17,10,28.90
2017,06,25,17,11,28.90
2017,06,25,17,12,28.90
2017,06,25,17,13,28.80
2017,06,25,17,14,28.80
2017,06,25,17,15,28.80
2017,06,25,17,16,28.70
2017,06,25,17,17,28.80
2017,06,25,17,18,28.80
2017,06,25,17,19,28.80